Lid_Strength_Index
16 15 16 16 17 17 18 18 18 16 18 15 13 13 14 14 14 13 13 12 12 11 10 9 9 8 7 6 6 6 6 6 5 4 3 4 4 5 6 7 8 9 9 9
16 16 16 17 16 16 16 17 19 17 17 12 12 14 15 14 13 13 13 12 12 12 11 10 10 9 8 8 7 7 7 7 6 5 4 4 4 5 6 7 8 9 10 9
17 16 16 16 15 16 16 15 17 17 13 14 14 14 13 13 13 13 13 12 12 11 11 10 11 10 9 9 8 8 8 7 7 6 5 5 4 5 6 7 8 9 10 10
17 16 16 13 14 14 15 14 15 14 14 13 13 13 13 13 13 13 12 12 11 11 11 10 11 10 10 10 9 9 9 8 7 6 6 6 5 6 6 6 8 9 10 10
18 19 15 14 15 15 15 13 12 13 12 12 14 14 12 13 12 12 11 10 10 11 10 11 11 10 10 11 11 10 10 10 9 7 6 6 7 7 7 7 8 9 9 10
18 19 17 13 15 14 13 15 13 13 12 12 14 14 12 12 12 12 11 11 11 11 11 11 11 10 11 11 11 11 11 10 9 8 7 7 7 8 7 8 9 8 9 10
18 18 16 12 15 14 16 12 11 12 11 13 13 10 11 12 12 11 11 11 11 12 12 11 11 11 12 12 12 11 11 11 10 9 8 8 8 8 8 8 9 9 9 9
17 19 18 14 15 14 9 11 10 12 11 12 12 12 12 12 12 12 12 12 12 12 12 11 11 11 12 12 11 11 11 11 10 9 8 10 10 9 10 9 9 10 10 10
15 14 11 13 11 11 10 10 11 11 11 11 11 12 12 12 12 12 12 12 12 12 12 12 12 12 12 12 12 12 12 11 10 9 9 10 10 10 10 10 10 10 10 10
14 10 12 12 12 12 11 11 10 11 10 11 12 11 12 12 12 13 13 13 12 13 13 12 12 12 12 11 12 12 12 12 11 10 9 10 10 10 11 11 11 11 11 11
14 12 11 10 10 10 10 10 11 11 11 11 11 12 12 12 12 12 13 13 13 13 13 13 12 12 12 12 12 12 12 12 12 10 10 10 10 10 11 11 11 11 11 10
12 8 9 9 9 9 10 10 10 11 11 11 11 11 12 12 12 12 13 13 14 13 13 13 13 13 12 12 12 12 13 13 12 11 10 10 10 11 12 12 12 12 12 11
9 9 9 9 10 10 10 9 10 11 10 10 11 11 12 12 12 13 13 13 13 13 13 13 13 13 13 12 12 13 13 13 12 12 11 10 10 11 11 11 12 12 12 11
9 9 11 10 10 9 10 10 10 10 10 10 10 12 12 12 13 13 13 13 13 13 13 13 13 14 13 13 13 13 13 13 12 12 11 11 11 11 11 11 12 12 12 12
10 10 9 8 10 10 10 11 12 12 11 12 12 12 12 13 13 13 12 12 13 13 13 13 14 13 13 13 13 13 13 13 13 12 12 11 11 11 11 11 11 11 11 13
10 10 10 11 10 10 10 11 12 10 11 11 12 12 12 12 12 12 12 13 14 15 14 13 13 13 13 13 13 13 13 13 13 13 13 13 12 12 12 12 12 11 11 11
11 11 11 12 11 11 11 10 10 10 10 11 11 11 13 13 13 13 13 13 13 13 12 13 13 12 13 13 13 13 13 13 14 13 13 13 12 12 12 12 12 11 11 11
10 9 9 9 9 10 10 10 10 10 11 11 11 12 13 13 13 12 12 12 13 13 12 12 12 12 13 13 13 12 13 13 13 14 13 13 12 12 11 11 12 11 11 11
10 10 10 10 10 10 10 10 10 10 10 11 12 13 12 12 12 12 11 13 14 14 12 11 13 13 12 13 13 12 12 13 13 13 13 13 12 12 12 12 12 12 12 12
10 10 10 10 10 10 10 10 10 10 10 11 13 14 14 14 14 14 13 13 12 12 11 10 12 12 12 12 14 12 13 13 13 13 13 13 13 12 12 12 12 12 12 11
9 9 10 10 10 10 10 9 10 11 10 11 12 13 13 13 14 14 14 14 11 11 11 12 11 12 12 13 13 13 12 13 13 13 13 13 13 12 12 11 12 12 11 11
9 10 10 10 10 10 10 10 10 10 10 11 13 13 14 13 13 13 13 12 10 12 11 10 11 11 11 12 12 12 12 12 12 12 12 12 12 12 12 11 10 10 10 10
9 10 10 10 10 10 10 10 10 10 11 11 12 11 12 11 10 11 11 9 11 11 10 9 10 12 12 12 12 12 12 12 12 12 11 11 11 11 10 10 9 9 9 9
9 9 10 10 10 10 10 9 10 10 10 10 11 11 11 11 9 9 9 10 12 11 10 9 10 12 12 11 11 11 11 11 11 11 11 10 9 9 9 8 8 8 9 9
9 9 9 10 10 10 10 10 10 10 10 9 10 10 10 9 10 8 8 8 11 11 9 10 11 11 10 10 10 10 10 11 11 10 9 9 8 8 8 7 7 8 8 9
10 10 10 10 10 10 10 10 10 10 10 10 9 10 9 9 9 9 9 9 9 10 9 9 9 9 9 9 9 9 10 9 9 8 7 7 7 7 7 7 7 8 8 8
9 11 10 11 11 11 11 11 11 11 11 10 10 10 10 10 9 9 10 9 9 9 9 9 9 9 9 9 9 9 8 7 7 6 6 6 6 6 7 7 7 8 7 8